Time,TemperatureF,DewpointF,PressureIn,WindDirection,WindDirectionDegrees,WindSpeedMPH,WindSpeedGustMPH,Humidity,HourlyPrecipIn,Conditions,Clouds,dailyrainin,SoftwareType,DateUTC
2013-02-15 00:02:00,35.0,29.0,29.93,WNW,287,6.0,11.0,78,0.00,,,0.00,,2013-02-15 05:02:00,
2013-02-15 00:12:00,35.0,29.0,29.93,WNW,287,6.0,11.0,78,0.00,,,0.00,,2013-02-15 05:12:00,
2013-02-15 00:22:00,35.0,29.0,29.93,West,281,9.0,16.0,77,0.00,,,0.00,,2013-02-15 05:22:00,
2013-02-15 00:32:00,35.0,28.0,29.93,WNW,288,8.0,18.0,74,0.00,,,0.00,,2013-02-15 05:32:00,
2013-02-15 00:42:00,35.0,28.0,29.93,WNW,288,8.0,18.0,74,0.00,,,0.00,,2013-02-15 05:42:00,
2013-02-15 00:52:00,34.0,27.0,29.93,West,280,4.0,11.0,76,0.00,,,0.00,,2013-02-15 05:52:00,
2013-02-15 01:02:00,34.0,28.0,29.93,West,280,6.0,11.0,77,0.00,,,0.00,,2013-02-15 06:02:00,
2013-02-15 01:11:00,34.0,28.0,29.93,West,280,6.0,11.0,77,0.00,,,0.00,,2013-02-15 06:11:00,
2013-02-15 01:22:00,33.0,26.0,29.93,West,278,7.0,12.0,75,0.00,,,0.00,,2013-02-15 06:22:00,
2013-02-15 01:32:00,33.0,26.0,29.93,West,277,6.0,12.0,74,0.00,,,0.00,,2013-02-15 06:32:00,
2013-02-15 01:42:00,33.0,26.0,29.93,West,277,6.0,12.0,74,0.00,,,0.00,,2013-02-15 06:42:00,
2013-02-15 01:52:00,33.0,26.0,29.93,West,263,4.0,8.0,76,0.00,,,0.00,,2013-02-15 06:52:00,
2013-02-15 02:01:00,32.0,26.0,29.93,West,266,5.0,7.0,78,0.00,,,0.00,,2013-02-15 07:01:00,
2013-02-15 02:11:00,32.0,26.0,29.93,West,266,5.0,7.0,78,0.00,,,0.00,,2013-02-15 07:11:00,
2013-02-15 02:21:00,32.0,27.0,29.93,West,278,4.0,5.0,80,0.00,,,0.00,,2013-02-15 07:21:00,
2013-02-15 02:32:00,32.0,27.0,29.94,WSW,245,4.0,7.0,80,0.00,,,0.00,,2013-02-15 07:32:00,
2013-02-15 02:42:00,32.0,27.0,29.94,WSW,245,4.0,7.0,80,0.00,,,0.00,,2013-02-15 07:42:00,
2013-02-15 02:52:00,31.0,26.0,29.94,West,267,3.0,5.0,81,0.00,,,0.00,,2013-02-15 07:52:00,
2013-02-15 03:01:00,31.0,26.0,29.94,WSW,243,2.0,5.0,81,0.00,,,0.00,,2013-02-15 08:01:00,
2013-02-15 03:11:00,31.0,26.0,29.94,WSW,243,2.0,5.0,81,0.00,,,0.00,,2013-02-15 08:11:00,
2013-02-15 03:21:00,31.0,26.0,29.95,West,262,4.0,7.0,81,0.00,,,0.00,,2013-02-15 08:21:00,
2013-02-15 03:32:00,31.0,26.0,29.96,West,267,4.0,8.0,81,0.00,,,0.00,,2013-02-15 08:32:00,
2013-02-15 03:42:00,31.0,26.0,29.96,West,267,4.0,8.0,81,0.00,,,0.00,,2013-02-15 08:42:00,
2013-02-15 03:52:00,31.0,26.0,29.96,West,264,5.0,7.0,81,0.00,,,0.00,,2013-02-15 08:52:00,
2013-02-15 04:02:00,31.0,26.0,29.96,West,264,3.0,8.0,82,0.00,,,0.00,,2013-02-15 09:02:00,
2013-02-15 04:12:00,31.0,26.0,29.96,West,264,3.0,8.0,82,0.00,,,0.00,,2013-02-15 09:12:00,
2013-02-15 04:22:00,31.0,26.0,29.96,WSW,255,4.0,8.0,82,0.00,,,0.00,,2013-02-15 09:22:00,
2013-02-15 04:32:00,30.0,25.0,29.96,West,260,4.0,6.0,82,0.00,,,0.00,,2013-02-15 09:32:00,
2013-02-15 04:42:00,30.0,25.0,29.96,West,260,4.0,6.0,82,0.00,,,0.00,,2013-02-15 09:42:00,
2013-02-15 04:52:00,30.0,25.0,29.96,WSW,245,5.0,8.0,82,0.00,,,0.00,,2013-02-15 09:52:00,
2013-02-15 05:01:00,30.0,25.0,29.97,SW,229,5.0,9.0,83,0.00,,,0.00,,2013-02-15 10:01:00,
2013-02-15 05:11:00,30.0,25.0,29.97,SW,229,5.0,9.0,83,0.00,,,0.00,,2013-02-15 10:11:00,
2013-02-15 05:21:00,30.0,25.0,29.97,WSW,240,4.0,7.0,83,0.00,,,0.00,,2013-02-15 10:21:00,
2013-02-15 05:32:00,30.0,25.0,29.97,WSW,252,3.0,7.0,83,0.00,,,0.00,,2013-02-15 10:32:00,
2013-02-15 05:42:00,30.0,25.0,29.97,WSW,252,3.0,7.0,83,0.00,,,0.00,,2013-02-15 10:42:00,
2013-02-15 05:52:00,31.0,26.0,29.98,West,264,4.0,6.0,83,0.00,,,0.00,,2013-02-15 10:52:00,
2013-02-15 06:01:00,30.0,25.0,29.98,West,270,2.0,5.0,83,0.00,,,0.00,,2013-02-15 11:01:00,
2013-02-15 06:11:00,30.0,25.0,29.98,West,270,2.0,5.0,83,0.00,,,0.00,,2013-02-15 11:11:00,
2013-02-15 06:23:00,30.0,26.0,29.99,WSW,255,2.0,4.0,84,0.00,,,0.00,,2013-02-15 11:23:00,
2013-02-15 06:32:00,30.0,26.0,29.99,West,271,2.0,5.0,84,0.00,,,0.00,,2013-02-15 11:32:00,
2013-02-15 06:42:00,30.0,26.0,29.99,West,271,2.0,5.0,84,0.00,,,0.00,,2013-02-15 11:42:00,
2013-02-15 06:52:00,30.0,26.0,29.99,West,271,2.0,5.0,84,0.00,,,0.00,,2013-02-15 11:52:00,
2013-02-15 07:02:00,30.0,25.0,30.00,West,273,2.0,5.0,83,0.00,,,0.00,,2013-02-15 12:02:00,
2013-02-15 07:11:00,30.0,25.0,30.00,West,273,2.0,5.0,83,0.00,,,0.00,,2013-02-15 12:11:00,
2013-02-15 07:22:00,30.0,25.0,30.00,West,274,2.0,5.0,82,0.00,,,0.00,,2013-02-15 12:22:00,
2013-02-15 07:32:00,30.0,25.0,30.01,West,272,1.0,3.0,82,0.00,,,0.00,,2013-02-15 12:32:00,
2013-02-15 07:42:00,30.0,25.0,30.01,West,272,1.0,3.0,82,0.00,,,0.00,,2013-02-15 12:42:00,
2013-02-15 07:52:00,30.0,25.0,30.01,West,272,1.0,3.0,82,0.00,,,0.00,,2013-02-15 12:52:00,
2013-02-15 08:02:00,30.0,25.0,30.01,West,262,2.0,3.0,82,0.00,,,0.00,,2013-02-15 13:02:00,
2013-02-15 08:11:00,30.0,25.0,30.01,West,262,2.0,3.0,82,0.00,,,0.00,,2013-02-15 13:11:00,
2013-02-15 08:22:00,30.0,25.0,30.02,West,278,1.0,4.0,83,0.00,,,0.00,,2013-02-15 13:22:00,
2013-02-15 08:32:00,31.0,26.0,30.03,WNW,290,1.0,3.0,83,0.00,,,0.00,,2013-02-15 13:32:00,
2013-02-15 08:42:00,31.0,26.0,30.03,WNW,290,1.0,3.0,83,0.00,,,0.00,,2013-02-15 13:42:00,
2013-02-15 08:52:00,31.0,26.0,30.03,WNW,290,2.0,4.0,82,0.00,,,0.00,,2013-02-15 13:52:00,
2013-02-15 09:01:00,31.0,26.0,30.04,WNW,287,0.0,4.0,81,0.00,,,0.00,,2013-02-15 14:01:00,
2013-02-15 09:12:00,31.0,26.0,30.04,WNW,287,0.0,4.0,81,0.00,,,0.00,,2013-02-15 14:12:00,
2013-02-15 09:22:00,31.0,26.0,30.05,WNW,294,2.0,4.0,82,0.00,,,0.00,,2013-02-15 14:22:00,
2013-02-15 09:32:00,31.0,26.0,30.06,NNW,348,2.0,6.0,81,0.00,,,0.00,,2013-02-15 14:32:00,
2013-02-15 09:42:00,31.0,26.0,30.06,NNW,348,2.0,6.0,81,0.00,,,0.00,,2013-02-15 14:42:00,
2013-02-15 09:52:00,32.0,27.0,30.06,WNW,290,0.0,4.0,82,0.00,,,0.00,,2013-02-15 14:52:00,
2013-02-15 10:02:00,31.0,26.0,30.06,NNW,340,2.0,5.0,82,0.00,,,0.00,,2013-02-15 15:02:00,
2013-02-15 10:11:00,31.0,26.0,30.06,NNW,340,2.0,5.0,82,0.00,,,0.00,,2013-02-15 15:11:00,
2013-02-15 10:22:00,31.0,26.0,30.07,NE,40,4.0,6.0,83,0.00,,,0.00,,2013-02-15 15:22:00,
2013-02-15 10:32:00,31.0,27.0,30.07,NNE,14,5.0,6.0,85,0.00,,,0.00,,2013-02-15 15:32:00,
2013-02-15 10:42:00,31.0,27.0,30.07,NNE,14,5.0,6.0,85,0.00,,,0.00,,2013-02-15 15:42:00,
2013-02-15 10:52:00,31.0,28.0,30.07,NNE,29,4.0,7.0,87,0.00,,,0.00,,2013-02-15 15:52:00,
2013-02-15 11:02:00,30.0,25.0,30.07,North,5,5.0,10.0,83,0.00,,,0.00,,2013-02-15 16:02:00,
2013-02-15 11:11:00,30.0,25.0,30.07,North,5,5.0,10.0,83,0.00,,,0.00,,2013-02-15 16:11:00,
2013-02-15 11:22:00,30.0,24.0,30.08,NNW,335,7.0,10.0,79,0.00,,,0.00,,2013-02-15 16:22:00,
2013-02-15 11:32:00,30.0,25.0,30.08,North,358,6.0,11.0,82,0.00,,,0.00,,2013-02-15 16:32:00,
2013-02-15 11:42:00,30.0,25.0,30.08,North,358,6.0,11.0,82,0.00,,,0.00,,2013-02-15 16:42:00,
2013-02-15 11:52:00,30.0,25.0,30.08,NNW,338,7.0,11.0,81,0.00,,,0.00,,2013-02-15 16:52:00,
2013-02-15 12:01:00,30.0,25.0,30.08,North,11,5.0,10.0,81,0.00,,,0.00,,2013-02-15 17:01:00,
2013-02-15 12:11:00,30.0,24.0,30.08,North,6,6.0,9.0,79,0.00,,,0.00,,2013-02-15 17:11:00,
2013-02-15 12:21:00,30.0,24.0,30.08,North,6,6.0,9.0,79,0.00,,,0.00,,2013-02-15 17:21:00,
2013-02-15 12:32:00,31.0,25.0,30.08,NNW,333,6.0,9.0,79,0.00,,,0.00,,2013-02-15 17:32:00,
2013-02-15 12:42:00,31.0,25.0,30.08,NNW,333,6.0,9.0,79,0.00,,,0.00,,2013-02-15 17:42:00,
2013-02-15 12:52:00,31.0,25.0,30.08,NW,315,6.0,10.0,78,0.00,,,0.00,,2013-02-15 17:52:00,
2013-02-15 13:02:00,31.0,24.0,30.08,NNW,327,5.0,10.0,75,0.00,,,0.00,,2013-02-15 18:02:00,
2013-02-15 13:12:00,31.0,24.0,30.08,NNW,327,5.0,10.0,75,0.00,,,0.00,,2013-02-15 18:12:00,
2013-02-15 13:21:00,32.0,25.0,30.07,WNW,293,4.0,10.0,74,0.00,,,0.00,,2013-02-15 18:21:00,
2013-02-15 13:32:00,31.0,25.0,30.07,NNE,22,6.0,14.0,77,0.00,,,0.00,,2013-02-15 18:32:00,
2013-02-15 13:42:00,31.0,25.0,30.07,NNE,22,6.0,14.0,77,0.00,,,0.00,,2013-02-15 18:42:00,
2013-02-15 13:52:00,31.0,25.0,30.07,North,4,9.0,13.0,77,0.00,,,0.00,,2013-02-15 18:52:00,
2013-02-15 14:02:00,31.0,25.0,30.07,North,355,5.0,10.0,77,0.00,,,0.00,,2013-02-15 19:02:00,
2013-02-15 14:11:00,31.0,25.0,30.07,North,355,5.0,10.0,77,0.00,,,0.00,,2013-02-15 19:11:00,
2013-02-15 14:22:00,31.0,24.0,30.07,North,358,8.0,14.0,74,0.00,,,0.00,,2013-02-15 19:22:00,
2013-02-15 14:32:00,31.0,23.0,30.08,West,278,5.0,12.0,73,0.00,,,0.00,,2013-02-15 19:32:00,
2013-02-15 14:42:00,31.0,23.0,30.08,West,278,5.0,12.0,73,0.00,,,0.00,,2013-02-15 19:42:00,
2013-02-15 14:52:00,32.0,24.0,30.08,NW,322,5.0,12.0,73,0.00,,,0.00,,2013-02-15 19:52:00,
2013-02-15 15:02:00,33.0,23.0,30.08,WNW,285,4.0,11.0,67,0.00,,,0.00,,2013-02-15 20:02:00,
2013-02-15 15:11:00,33.0,23.0,30.08,WNW,285,4.0,11.0,67,0.00,,,0.00,,2013-02-15 20:11:00,
2013-02-15 15:21:00,33.0,22.0,30.08,WNW,300,4.0,8.0,64,0.00,,,0.00,,2013-02-15 20:21:00,
2013-02-15 15:32:00,33.0,22.0,30.07,North,359,5.0,11.0,64,0.00,,,0.00,,2013-02-15 20:32:00,
2013-02-15 15:42:00,33.0,22.0,30.07,North,359,5.0,11.0,64,0.00,,,0.00,,2013-02-15 20:42:00,
2013-02-15 15:52:00,33.0,21.0,30.08,NNW,328,5.0,16.0,61,0.00,,,0.00,,2013-02-15 20:52:00,
2013-02-15 16:02:00,33.0,22.0,30.08,WNW,297,3.0,9.0,63,0.00,,,0.00,,2013-02-15 21:02:00,
2013-02-15 16:11:00,33.0,22.0,30.08,WNW,297,3.0,9.0,63,0.00,,,0.00,,2013-02-15 21:11:00,
2013-02-15 16:22:00,32.0,22.0,30.08,NNW,332,5.0,11.0,65,0.00,,,0.00,,2013-02-15 21:22:00,
2013-02-15 16:32:00,32.0,22.0,30.09,NNW,342,2.0,11.0,66,0.00,,,0.00,,2013-02-15 21:32:00,
2013-02-15 16:42:00,32.0,22.0,30.09,NNW,342,2.0,11.0,66,0.00,,,0.00,,2013-02-15 21:42:00,
2013-02-15 16:52:00,32.0,22.0,30.09,WNW,302,3.0,10.0,66,0.00,,,0.00,,2013-02-15 21:52:00,
2013-02-15 17:02:00,32.0,22.0,30.10,WNW,302,5.0,10.0,66,0.00,,,0.00,,2013-02-15 22:02:00,
2013-02-15 17:11:00,32.0,22.0,30.10,WNW,302,5.0,10.0,66,0.00,,,0.00,,2013-02-15 22:11:00,
2013-02-15 17:22:00,32.0,22.0,30.10,WNW,290,5.0,16.0,65,0.00,,,0.00,,2013-02-15 22:22:00,
2013-02-15 17:32:00,32.0,21.0,30.10,NW,312,5.0,15.0,64,0.00,,,0.00,,2013-02-15 22:32:00,
2013-02-15 17:42:00,32.0,21.0,30.10,NW,312,5.0,15.0,64,0.00,,,0.00,,2013-02-15 22:42:00,
2013-02-15 17:52:00,32.0,22.0,30.11,WNW,293,6.0,13.0,65,0.00,,,0.00,,2013-02-15 22:52:00,
2013-02-15 18:02:00,31.0,22.0,30.11,West,276,4.0,11.0,68,0.00,,,0.00,,2013-02-15 23:02:00,
2013-02-15 18:11:00,31.0,22.0,30.11,West,276,4.0,11.0,68,0.00,,,0.00,,2013-02-15 23:11:00,
2013-02-15 18:21:00,30.0,21.0,30.11,West,277,4.0,11.0,68,0.00,,,0.00,,2013-02-15 23:21:00,
2013-02-15 18:32:00,30.0,21.0,30.11,WNW,300,3.0,13.0,68,0.00,,,0.00,,2013-02-15 23:32:00,
2013-02-15 18:42:00,30.0,21.0,30.11,WNW,300,3.0,13.0,68,0.00,,,0.00,,2013-02-15 23:42:00,
2013-02-15 18:52:00,30.0,19.0,30.11,WNW,300,5.0,10.0,64,0.00,,,0.00,,2013-02-15 23:52:00,
2013-02-15 19:02:00,29.0,18.0,30.12,WNW,284,7.0,14.0,64,0.00,,,0.00,,2013-02-16 00:02:00,
2013-02-15 19:11:00,29.0,18.0,30.12,WNW,284,7.0,14.0,64,0.00,,,0.00,,2013-02-16 00:11:00,
2013-02-15 19:22:00,29.0,19.0,30.12,WNW,293,3.0,10.0,65,0.00,,,0.00,,2013-02-16 00:22:00,
2013-02-15 19:32:00,29.0,19.0,30.13,NW,304,5.0,10.0,65,0.00,,,0.00,,2013-02-16 00:32:00,
2013-02-15 19:42:00,29.0,19.0,30.13,NW,304,5.0,10.0,65,0.00,,,0.00,,2013-02-16 00:42:00,
2013-02-15 19:51:00,28.0,19.0,30.14,WNW,297,3.0,11.0,68,0.00,,,0.00,,2013-02-16 00:51:00,
2013-02-15 20:02:00,28.0,19.0,30.14,WNW,291,5.0,9.0,69,0.00,,,0.00,,2013-02-16 01:02:00,
2013-02-15 20:11:00,28.0,19.0,30.14,WNW,291,5.0,9.0,69,0.00,,,0.00,,2013-02-16 01:11:00,
2013-02-15 20:21:00,28.0,20.0,30.14,North,352,3.0,8.0,70,0.00,,,0.00,,2013-02-16 01:21:00,
2013-02-15 20:32:00,27.0,19.0,30.14,WNW,294,4.0,10.0,70,0.00,,,0.00,,2013-02-16 01:32:00,
2013-02-15 20:42:00,27.0,19.0,30.14,WNW,294,4.0,10.0,70,0.00,,,0.00,,2013-02-16 01:42:00,
2013-02-15 20:52:00,27.0,19.0,30.15,West,273,4.0,10.0,71,0.00,,,0.00,,2013-02-16 01:52:00,
2013-02-15 21:01:00,27.0,19.0,30.15,WNW,300,2.0,9.0,72,0.00,,,0.00,,2013-02-16 02:01:00,
2013-02-15 21:11:00,27.0,19.0,30.15,WNW,300,2.0,9.0,72,0.00,,,0.00,,2013-02-16 02:11:00,
2013-02-15 21:22:00,26.0,19.0,30.15,NNW,342,1.0,6.0,73,0.00,,,0.00,,2013-02-16 02:22:00,
2013-02-15 21:32:00,26.0,19.0,30.15,NNW,342,1.0,6.0,73,0.00,,,0.00,,2013-02-16 02:32:00,
2013-02-15 21:42:00,26.0,19.0,30.15,NNW,342,1.0,6.0,73,0.00,,,0.00,,2013-02-16 02:42:00,
2013-02-15 21:52:00,26.0,19.0,30.15,NNW,342,1.0,6.0,73,0.00,,,0.00,,2013-02-16 02:52:00,
2013-02-15 22:02:00,26.0,18.0,30.16,WNW,291,2.0,9.0,72,0.00,,,0.00,,2013-02-16 03:02:00,
2013-02-15 22:11:00,26.0,18.0,30.16,WNW,291,2.0,9.0,72,0.00,,,0.00,,2013-02-16 03:11:00,
2013-02-15 22:21:00,26.0,18.0,30.16,WNW,297,2.0,9.0,72,0.00,,,0.00,,2013-02-16 03:21:00,
2013-02-15 22:32:00,25.0,17.0,30.15,NNW,342,1.0,6.0,72,0.00,,,0.00,,2013-02-16 03:32:00,
2013-02-15 22:42:00,25.0,17.0,30.15,NNW,342,1.0,6.0,72,0.00,,,0.00,,2013-02-16 03:42:00,
2013-02-15 22:52:00,25.0,17.0,30.15,WNW,294,1.0,5.0,72,0.00,,,0.00,,2013-02-16 03:52:00,
2013-02-15 23:01:00,25.0,18.0,30.15,WNW,291,1.0,5.0,73,0.00,,,0.00,,2013-02-16 04:01:00,
2013-02-15 23:11:00,25.0,18.0,30.15,WNW,291,1.0,5.0,73,0.00,,,0.00,,2013-02-16 04:11:00,
2013-02-15 23:21:00,25.0,18.0,30.15,WNW,293,1.0,4.0,74,0.00,,,0.00,,2013-02-16 04:21:00,
2013-02-15 23:32:00,24.0,18.0,30.15,WNW,283,0.0,1.0,77,0.00,,,0.00,,2013-02-16 04:32:00,
2013-02-15 23:42:00,24.0,18.0,30.15,WNW,283,0.0,1.0,77,0.00,,,0.00,,2013-02-16 04:42:00,
2013-02-15 23:51:00,24.0,18.0,30.14,West,260,1.0,2.0,79,0.00,,,0.00,,2013-02-16 04:51:00,